SL-14 R/B, 20466

Orbit data source: Space-Track

SL-14 R/B, 20466 is space debris in LEO originally from a launch on Tue, 30 Jan 1990 UTC launched from the Plesetsk Missile And Space Complex (PKMTR). Debris objects in space refer to the collection of defunct objects orbiting the Earth. Examples of debris include non-operational satellites, rocket bodies, and fragments generated from explosions, collisions, or faulty payload assembly.

Loading next visibility...
Identifier
20466, 1990-010B
Orbit
LEO
Country
Flag of CISCIS
Related business
Manufacturer
Yuzhnoe
Mission
Spacecraft
Bus & Motor
S5M, Unknown motor
Mass
1,600 kg wet, 1,600 kg dry
Launch date (UTC)
1990-01-30 (36 years ago)
Launch vehicle
Unknown
Launch site
Plesetsk Missile And Space Complex (PKMTR)
Object type
Payload
Rocket body
Debris
Shape & HBR
Cyl, 1.4 m
Radar Cross Section
7.351 m², Large (>1 m²)

Expand to show TLE details & history
Last TLE update: 6 hours ago

TLE from 6 hours ago
0 SL-14 R/B
1 20466U 90010B   26163.78406784  .00000372  00000-0  42126-4 0  9991
2 20466  82.5016 178.0801 0019474 351.1616   8.9253 14.83643671942583
Epoch: 2026-06-12T18:49Z
TLE epoch observation values (Epoch: 2026-06-12T18:49:03.461Z)
Latitude
-0.00002°
Longitude
-5.29287°
Altitude
607.423 km
Speed
7.563 km/s
True Right ascension
11h 52m 19s
True Declination
0° 00' 00"
Sunlit
Object was in daylight at epoch
Visualization orbit readout
Latitude
Unknown
Longitude
Unknown
Altitude
Unknown
Speed
Unknown
Apparent Right ascension
Unknown
Apparent Declination
Unknown
Sunlit
N/A
Visualization observer readout
Local Sidereal Time
11:28:56
Azimuth
Unknown
Elevation
Unknown
Doppler factor
Unknown
Orbital elements
Apogee altitude
628.483 km
Perigee altitude
601.247 km
Semi-major axis
6,993.002 km
Eccentricity
0.00195
Inclination
82.5016°
RAAN
178.0801°
Arg. of periapsis
351.1616°
True anomaly
8.96001°
Mean anomaly
8.9253°
Eccentric anomaly
8.94264°
Mean motion
3.71149 °/min
Orbital period
97 mins
BSTAR
0.000042126
Loading maneuver chart data...
Computing Atmospheric mass density...
Loading historical data...
Loading historical data...
Loading historical data...
Loading historical data...
Loading historical data...
Loading historical data...
Loading historical data...
Other satellites on launch #10 in the year 1990 (1990-01-30 UTC)

Documentation

Showing up to 5 results
|